Regional Weather Roundup
Issued by NWS

Home | Current Version | Previous Version | Graphics & Text | Print | Product List | Glossary On
Versions: 1 2 3 4 5 6 7 8 9 10 11 12 13 14 15 16 17 18 19 20 21 22 23 24 25 26 27 28 29 30 31 32 33 34 35 36 37 38 39 40 41 42 43 44 45 46 47 48 49 50
684
ASUS45 KCYS 311010
RWRWY

WYOMING REGIONAL WEATHER ROUNDUP
NATIONAL WEATHER SERVICE CHEYENNE WY
400 AM MDT WED AUG 31 2016

NOTE:  "FAIR" INDICATES FEW OR NO CLOUDS BELOW 12,000 FEET
WITH NO SIGNIFICANT WEATHER AND/OR OBSTRUCTIONS TO VISIBILITY.

WYZ001-311100-
YELLOWSTONE NATIONAL PARK

CITY           SKY/WX    TMP DP  RH WIND       PRES   REMARKS
LK YELLOWSTONE   N/A     44  33  65 NW3       30.38S
W YELLOWSTONE  NOT AVBL

$$
WYZ002>013-054>058-071-098>099-311100-
NORTHERN WYOMING

CITY           SKY/WX    TMP DP  RH WIND       PRES   REMARKS
JACKSON        FAIR      48  32  53 NE3       30.28S
CODY           FAIR      61  32  33 CALM      30.15F
GREYBULL       FAIR      69  38  32 E8        30.11R
WORLAND        FAIR      70  44  39 SE10      30.13R
SHERIDAN       FAIR      65  39  38 S12       30.08S
BUFFALO        FAIR      69  43  38 S14       30.19F
GILLETTE       FAIR      63  52  67 S14       30.18F
HULETT         FAIR      70  54  56 S13       30.21F
NEWCASTLE      FAIR      64  52  63 E8        30.24F

$$
WYZ014>020-022>026-101>103-311100-
CENTRAL WYOMING

CITY           SKY/WX    TMP DP  RH WIND       PRES   REMARKS
BIG PINEY      FAIR      45  24  43 N8        30.35S
PINEDALE       FAIR      41  32  70 NW8       30.35S
DUBOIS         FAIR      50  27  40 NW9       30.36S
LANDER         FAIR      64  31  28 W6        30.25R
RIVERTON       FAIR      58  39  49 N3        30.23F
CASPER         FAIR      51  47  86 N6        30.24F
DOUGLAS        FAIR      55  50  83 SE8       30.26F

$$
WYZ021-027>030-104>119-311100-
SOUTHERN WYOMING

CITY           SKY/WX    TMP DP  RH WIND       PRES   REMARKS
EVANSTON       FAIR      61  28  28 SE5       30.29S
FORT BRIDGER   FAIR      54  24  31 NW6       30.32S
ROCK SPRINGS   FAIR      57  35  43 E6        30.29S
DIXON          FAIR      53  38  56 E10       30.31F
RAWLINS        FAIR      50  41  71 NE8       30.33F
SARATOGA       FAIR      46  39  76 S9        30.35F
LARAMIE        FAIR      46  44  93 S8        30.37F
CHEYENNE       FAIR      51  48  89 W6        30.33F
TORRINGTON     FAIR      56  55  97 E9        30.24F
PINE BLUFFS    FAIR      46  46 100 CALM      30.30F

$$




USA.gov is the U.S. government's official web portal to all federal, state and local government web resources and services.